[[{"header":{"parameterUnit":"m.s-1","parameterCategory":1,"la1":30.2991,"la2":30.254,"lo1":-89.0895,"lo2":-89.0444,"dy":0.0017,"dx":0.0017,"nx":28,"ny":28,"refTime":"2025-05-26T09:00:00:Z","depth":0,"parameterNumber":2,"parameterNumberName":"U-component_of_WINDS"},"data":[0,0,0,0,0,0,0,0,0,0,0,0,0,0,0,0,0,0,0,0,0,0,0,0,0,0,0,0,0,0,0,0,0,0,0,0,0,0,0,0,0,0,0,0,0,0,0,0,0,0,0,0,0,0,0,0,0,0,0.7883,0.7883,0,0.7862,0.7862,0.7862,0.7829,0.7829,0.7828,0.7827,0.7807,0.7807,0.7807,0,0,0,0,0,0,0,0,0,0,0,0,0,0.7896,0.7896,0.7883,0.7883,0.7883,0.7863,0.7862,0.7862,0.7829,0.7829,0.7828,0.7827,0.7807,0.7807,0.7807,0,0,0,0,0,0,0,0,0,0,0,0,0,0.7884,0.7896,0.7884,0.7864,0.7862,0.7863,0.7862,0.7862,0.7829,0.7828,0.7828,0.7827,0.7807,0.7807,0.7807,0.7825,0,0,0.7807,0.7807,0,0,0,0,0,0,0,0,0.7885,0.7884,0.7867,0.7865,0.7863,0.7847,0.7859,0.785,0.783,0.7842,0.7827,0.7826,0.7821,0.782,0.7818,0.7824,0.7823,0.7807,0.7807,0.7807,0.7807,0,0,0,0,0,0,0,0.7886,0.7885,0.7875,0.7867,0.7865,0.7857,0.7854,0.7857,0.7837,0.7841,0.7838,0.7836,0.782,0.7818,0.7817,0.7823,0.7807,0.7807,0.7807,0.7807,0.7842,0.7842,0,0,0,0,0,0,0.7889,0.7886,0.7876,0.7875,0.7872,0.7857,0.7854,0.7853,0.7837,0.7833,0.7837,0.7835,0.7819,0.7817,0.7817,0.7835,0.7807,0.7807,0.7807,0.7841,0.7842,0.7843,0,0,0,0,0,0,0.789,0.7889,0.7877,0.7879,0.7877,0.7858,0.7857,0.7854,0.7852,0.7834,0.783,0.7839,0.7818,0.7817,0.7823,0.7834,0.7807,0.7807,0.784,0.7841,0.7842,0.7874,0,0,0,0,0,0,0.789,0.7889,0.7896,0.788,0.7877,0.7883,0.7858,0.7854,0.7852,0.7848,0.7835,0.7831,0.7817,0.7823,0.7823,0.7834,0.7807,0.7839,0.784,0.7842,0.7872,0.7877,0.788,0,0,0,0,0,0.7891,0.7906,0.7896,0.7895,0.7885,0.7884,0.7882,0.7865,0.7853,0.7859,0.7848,0.7832,0.7833,0.7824,0.7824,0.7835,0.7838,0.784,0.7842,0.787,0.7876,0.788,0,0,0,0,0,0,0.7924,0.7903,0.7892,0.7903,0.7895,0.7878,0.7886,0.7872,0.7868,0.7865,0.7845,0.7842,0.785,0.7843,0.7833,0.7851,0.7833,0.7835,0.7855,0.786,0.7864,0.7865,0.7807,0,0,0,0,0,0.7933,0.7933,0.7915,0.7926,0.7923,0.7905,0.7904,0.7892,0.7883,0.788,0.7869,0.7862,0.786,0.786,0.7858,0.7871,0.7867,0.7879,0.7883,0.7886,0.7888,0.7894,0.7898,0.7849,0.7849,0.7849,0,0,0.795,0.7939,0.7941,0.7933,0.7925,0.7926,0.7903,0.7905,0.7906,0.788,0.7885,0.7877,0.7868,0.7877,0.7881,0.7872,0.7901,0.7889,0.7892,0.7892,0.7896,0.7901,0.7905,0.7851,0.7851,0.785,0,0,0.7982,0.7974,0.7982,0.7975,0.7964,0.7952,0.7954,0.7939,0.7933,0.7937,0.7918,0.7919,0.7917,0.7911,0.7908,0.7937,0.7923,0.7938,0.7959,0.7965,0.7968,0.7972,0.7981,0.7985,0.794,0.794,0.794,0,0.8005,0.8006,0.7988,0.7991,0.7988,0.7965,0.7972,0.7967,0.7956,0.7954,0.7944,0.7941,0.7933,0.794,0.7948,0.7946,0.7947,0.7938,0.7969,0.7972,0.7975,0.7984,0.7988,0.7941,0.7941,0.7941,0.7941,0,0.8035,0.8036,0.8043,0.8032,0.803,0.8036,0.8018,0.8018,0.8006,0.7995,0.8,0.799,0.7985,0.7986,0.7974,0.7992,0.7986,0.7973,0.7955,0.7982,0.799,0.7993,0.7944,0.7943,0.7943,0.7942,0,0,0.8086,0.8066,0.8068,0.8063,0.805,0.805,0.8055,0.8049,0.8049,0.8043,0.8046,0.8045,0.8032,0.8029,0.8016,0.8022,0.8045,0.8008,0.8007,0.8014,0.8062,0.8071,0.8075,0.8035,0.8036,0.8036,0.8062,0,0.8115,0.8121,0.8104,0.8114,0.8114,0.8093,0.8096,0.8089,0.8079,0.8078,0.8067,0.8066,0.8051,0.8048,0.8052,0.8041,0.8054,0.8039,0.8037,0.8037,0.8039,0.808,0.8089,0.8114,0.8066,0.8066,0.8067,0,0.8149,0.8143,0.8153,0.8138,0.8138,0.8141,0.8135,0.8134,0.8125,0.8118,0.8113,0.8099,0.8102,0.8085,0.809,0.808,0.8078,0.8073,0.8073,0.8072,0.8053,0.8078,0.8122,0.8125,0.8072,0.8071,0.8071,0,0.8184,0.8179,0.8184,0.818,0.8164,0.8167,0.816,0.815,0.8148,0.8142,0.814,0.8136,0.8133,0.813,0.8115,0.8104,0.8121,0.8103,0.8114,0.8114,0.8117,0.8117,0.8161,0.8119,0.8119,0.8119,0.8118,0,0.8216,0.8223,0.8199,0.8202,0.8209,0.8191,0.8198,0.8189,0.818,0.8181,0.8163,0.8164,0.8144,0.8143,0.8132,0.8136,0.8136,0.8129,0.8126,0.813,0.8131,0.8128,0.8125,0.8119,0.8119,0.8119,0.8119,0,0.8256,0.8241,0.8245,0.8229,0.8225,0.823,0.8216,0.8219,0.8208,0.8209,0.8208,0.8192,0.819,0.8174,0.8169,0.8161,0.817,0.8164,0.8173,0.817,0.8182,0.8181,0.8224,0.8228,0.8185,0.8185,0.8186,0,0.8277,0.8282,0.8266,0.8265,0.8259,0.8258,0.8255,0.8238,0.8236,0.8225,0.8229,0.8225,0.8221,0.8219,0.8207,0.8202,0.8195,0.8211,0.8195,0.8199,0.8194,0.8193,0.8193,0.8214,0.8215,0.8215,0.8215,0,0.8316,0.8308,0.8305,0.8299,0.8296,0.8291,0.8285,0.8285,0.8265,0.8264,0.8262,0.8259,0.8253,0.825,0.8244,0.8237,0.8223,0.8221,0.8223,0.8227,0.8231,0.8228,0.8181,0.822,0.8219,0.8219,0.8219,0.8218,0.8346,0.8349,0.8338,0.8335,0.8328,0.8322,0.8323,0.8313,0.831,0.8304,0.8294,0.8293,0.8283,0.8273,0.8268,0.8266,0.8258,0.8262,0.8262,0.8263,0.8265,0.8233,0.8265,0.8265,0.8265,0.8265,0.8265,0,0.8383,0.8375,0.8372,0.8363,0.8361,0.8348,0.834,0.8339,0.8338,0.8331,0.8327,0.8324,0.8321,0.8308,0.8303,0.8305,0.8298,0.8304,0.8303,0.8302,0.8273,0.8271,0.8309,0.8309,0.8309,0.8309,0.8309,0.8309,0.8401,0.8405,0.8396,0.8396,0.8388,0.8386,0.8382,0.8377,0.8371,0.8368,0.8365,0.8357,0.8347,0.8341,0.8338,0.8334,0.8333,0.834,0.8335,0.8308,0.8304,0.83,0.8297,0.8341,0.8341,0.8363,0.8363,0.8363]},{"header":{"parameterUnit":"m.s-1","parameterCategory":1,"la1":30.2991,"la2":30.254,"lo1":-89.0895,"lo2":-89.0444,"dy":0.0017,"dx":0.0017,"nx":28,"ny":28,"refTime":"2025-05-26T09:00:00:Z","depth":0,"parameterNumber":3,"parameterNumberName":"V-component_of_WINDS"},"data":[0,0,0,0,0,0,0,0,0,0,0,0,0,0,0,0,0,0,0,0,0,0,0,0,0,0,0,0,0,0,0,0,0,0,0,0,0,0,0,0,0,0,0,0,0,0,0,0,0,0,0,0,0,0,0,0,0,0,6.543,6.5431,0,6.5524,6.5525,6.5526,6.5465,6.5462,6.5459,6.5456,6.5547,6.5552,6.5557,0,0,0,0,0,0,0,0,0,0,0,0,0,6.5193,6.5198,6.543,6.5431,6.5432,6.5523,6.5525,6.5526,6.5465,6.5462,6.5458,6.5455,6.5546,6.5552,6.5558,0,0,0,0,0,0,0,0,0,0,0,0,0,6.5292,6.5199,6.543,6.5413,6.5412,6.5523,6.5525,6.5526,6.5466,6.5462,6.5457,6.5453,6.5544,6.5551,6.5559,6.5689,0,0,6.5582,6.5585,0,0,0,0,0,0,0,0,6.5287,6.5301,6.5414,6.5414,6.5414,6.5478,6.5474,6.5581,6.5467,6.5445,6.5456,6.5451,6.5527,6.5536,6.5563,6.5694,6.5698,6.5582,6.5587,6.559,6.5592,0,0,0,0,0,0,0,6.528,6.5296,6.5467,6.5416,6.5416,6.5399,6.5408,6.5494,6.5509,6.5447,6.5443,6.5455,6.5526,6.5556,6.5564,6.5699,6.5582,6.5589,6.5593,6.5596,6.594,6.5944,0,0,0,0,0,0,6.5275,6.5291,6.5464,6.547,6.5339,6.5407,6.5417,6.5462,6.5508,6.5511,6.5458,6.5452,6.5545,6.5556,6.5567,6.5722,6.559,6.5597,6.5601,6.5935,6.5941,6.5946,0,0,0,0,0,0,6.527,6.5291,6.546,6.5379,6.54,6.5415,6.5466,6.5466,6.5495,6.5516,6.5518,6.5486,6.5542,6.5557,6.5659,6.5725,6.5601,6.5607,6.593,6.5937,6.5943,6.6035,0,0,0,0,0,0,6.5264,6.529,6.5341,6.5381,6.5404,6.5553,6.547,6.5471,6.5509,6.5501,6.5543,6.5545,6.554,6.5648,6.5667,6.5733,6.5613,6.5924,6.5933,6.5941,6.6026,6.6044,6.6059,0,0,0,0,0,6.5255,6.5362,6.5344,6.5365,6.5469,6.5557,6.557,6.5562,6.5514,6.5565,6.5578,6.5544,6.5715,6.566,6.568,6.5749,6.592,6.5931,6.5941,6.6018,6.604,6.6059,0,0,0,0,0,0,6.5328,6.5367,6.5347,6.5471,6.5511,6.5546,6.561,6.5586,6.5639,6.5629,6.5616,6.5626,6.5734,6.5751,6.5689,6.5877,6.581,6.5824,6.5862,6.5883,6.5899,6.5892,6.562,0,0,0,0,0,6.5359,6.5429,6.5458,6.5564,6.5585,6.5594,6.5632,6.5623,6.5663,6.568,6.5701,6.574,6.5802,6.5843,6.5902,6.6028,6.6035,6.6086,6.6102,6.6116,6.6129,6.6195,6.6217,6.598,6.598,6.598,0,0,6.5422,6.5452,6.5497,6.5579,6.5609,6.568,6.5609,6.5687,6.5738,6.5691,6.5789,6.5806,6.5849,6.5964,6.6015,6.5982,6.6196,6.6129,6.614,6.6145,6.6208,6.623,6.625,6.5987,6.5986,6.5984,0,0,6.5574,6.5605,6.5696,6.5727,6.5774,6.5779,6.5801,6.584,6.585,6.5949,6.5914,6.5974,6.6082,6.6114,6.6144,6.6307,6.6277,6.6326,6.6413,6.6478,6.6496,6.6513,6.657,6.659,6.6339,6.6339,6.6339,0,6.5647,6.5753,6.5745,6.5826,6.5862,6.5824,6.5914,6.5945,6.6008,6.6033,6.5995,6.6129,6.6155,6.6276,6.6316,6.6342,6.6365,6.6321,6.6495,6.6511,6.6526,6.658,6.6602,6.6345,6.6344,6.6343,6.6343,0,6.5839,6.5914,6.5981,6.6044,6.6088,6.6174,6.6176,6.6222,6.6208,6.6217,6.6317,6.6347,6.641,6.6438,6.6426,6.6557,6.6535,6.6497,6.6428,6.6555,6.6605,6.6626,6.6353,6.6351,6.6349,6.6348,0,0,6.604,6.6097,6.6122,6.6149,6.6198,6.6254,6.6337,6.64,6.6438,6.6483,6.6551,6.6643,6.6607,6.6641,6.6631,6.6689,6.6814,6.6643,6.6643,6.6673,6.6959,6.6987,6.7012,6.6795,6.6799,6.6802,6.6955,0,6.6193,6.6339,6.6334,6.6469,6.6536,6.65,6.6572,6.6608,6.6618,6.6676,6.6686,6.6751,6.6699,6.672,6.6775,6.6787,6.6871,6.6776,6.6856,6.6859,6.6846,6.7038,6.7069,6.7212,6.6975,6.6978,6.6981,0,6.6392,6.6445,6.6587,6.6625,6.6653,6.6717,6.6774,6.683,6.687,6.6873,6.6911,6.6892,6.6974,6.6904,6.7015,6.695,6.6982,6.6993,6.6999,6.7005,6.6927,6.7049,6.7258,6.7279,6.7012,6.7009,6.7007,0,6.6523,6.6629,6.6727,6.6752,6.6799,6.6845,6.6866,6.6902,6.694,6.6989,6.7013,6.7071,6.7102,6.7146,6.7142,6.7092,6.7255,6.7185,6.7258,6.7258,6.7294,6.7291,6.751,6.7316,6.7316,6.7315,6.7315,0,6.6694,6.6783,6.6786,6.6847,6.6944,6.6936,6.7032,6.7048,6.708,6.7141,6.7113,6.7171,6.7163,6.7221,6.7219,6.731,6.7325,6.7328,6.7327,6.7331,6.733,6.7351,6.734,6.7321,6.732,6.7319,6.7318,0,6.6856,6.6863,6.6967,6.7003,6.7014,6.7084,6.7113,6.7169,6.7177,6.7255,6.7273,6.7284,6.7351,6.7352,6.7428,6.7426,6.7538,6.7525,6.7525,6.7522,6.7595,6.7588,6.7834,6.7865,6.7652,6.7654,6.7656,0,6.6965,6.7032,6.7075,6.7115,6.7139,6.7204,6.7243,6.7237,6.7278,6.7328,6.7378,6.7442,6.7493,6.7601,6.7615,6.7672,6.766,6.7742,6.7668,6.767,6.766,6.7656,6.7662,6.7756,6.7759,6.7761,6.7762,0,6.7157,6.7157,6.7215,6.7274,6.7321,6.7367,6.7409,6.7443,6.7441,6.7489,6.7557,6.7597,6.7675,6.7738,6.7794,6.7813,6.7788,6.7786,6.7805,6.781,6.7807,6.7808,6.7563,6.778,6.7778,6.7777,6.7776,6.7775,6.7295,6.7352,6.7391,6.7456,6.7488,6.7528,6.7582,6.7597,6.7654,6.7718,6.771,6.7786,6.7823,6.7895,6.7919,6.7977,6.7949,6.7978,6.7985,6.7992,6.7999,6.7798,6.7988,6.7987,6.7987,6.7986,6.7986,0,6.7484,6.7508,6.7568,6.7628,6.7679,6.7651,6.7696,6.774,6.7808,6.7845,6.7896,6.7973,6.8035,6.8054,6.8113,6.8155,6.8145,6.8171,6.8167,6.8172,6.8022,6.7999,6.8178,6.8178,6.8178,6.8178,6.8178,6.8178,6.7589,6.7685,6.7689,6.7799,6.7821,6.7896,6.7924,6.796,6.7989,6.8078,6.8129,6.8142,6.8171,6.8232,6.8286,6.829,6.8312,6.8343,6.8342,6.8202,6.8182,6.8164,6.8142,6.8348,6.8349,6.8486,6.8488,6.8489]}]]